Regional Weather Roundup
Issued by NWS Boston, MA

Home | Current Version | Previous Version | Text Only | Print | Product List | Glossary On
Versions: 1 2 3 4 5 6 7 8 9 10 11 12 13 14 15 16 17 18 19 20 21 22 23 24 25 26 27
000
ASUS41 KBOX 031110
RWRBOX

REGIONAL WEATHER ROUNDUP
NATIONAL WEATHER SERVICE TAUNTON MA
600 AM EST SAT DEC 03 2016

NOTE:  "FAIR" INDICATES FEW OR NO CLOUDS BELOW 12,000 FEET WITH NO
SIGNIFICANT WEATHER AND/OR OBSTRUCTIONS TO VISIBILITY.

MAZALL-031200-
EASTERN MASSACHUSETTS

CITY           SKY/WX    TMP DP  RH WIND       PRES   REMARKS
BOSTON         MOCLDY    39  28  64 W17       29.79R WCI  30
BEVERLY        PTCLDY    37  27  67 W7        29.77R WCI  32
LAWRENCE       PTCLDY    38  27  64 W8        29.78R
BEDFORD        PTCLDY    37  25  61 W12       29.78R WCI  29
BLUE HILL        N/A     35  26  69 W15G24    29.76R WCI  25
NORWOOD        CLOUDY    40  26  57 W12       29.79R
MARSHFIELD     MOCLDY    39  27  60 VRB7G15   29.78R
PLYMOUTH       MOCLDY    37  27  67 W8        29.79  WCI  31
TAUNTON        NOT AVBL
NEW BEDFORD    MOCLDY    39  26  59 W10       29.80R
$$

MAZALL-031200-
CAPE COD AND THE ISLANDS

CITY           SKY/WX    TMP DP  RH WIND       PRES   REMARKS
FALMOUTH         N/A     36  27  69 MISG      29.78S
HYANNIS        CLEAR     37  27  67 W7        29.77R WCI  32
CHATHAM        CLEAR     41  28  60 W9G20     29.78
NANTUCKET      CLEAR     41  28  60 NW18G25   29.78R
MARTHAS VNYRD  CLEAR     40  27  59 NW15G26   29.81R WCI  32
$$

MAZALL-031200-
CENTRAL AND WESTERN MASSACHUSETTS

CITY           SKY/WX    TMP DP  RH WIND       PRES   REMARKS
WORCESTER      CLOUDY    34  24  67 W22G29    29.78R WCI  22
FITCHBURG      CLOUDY    37  25  61 NW9       29.81  WCI  30
ORANGE         CLOUDY    36  27  69 VRB5      29.83
SPRINGFIELD    CLOUDY    38  25  58 W8        29.85R
WESTFIELD      CLOUDY    38  25  59 NW17      29.86R WCI  28
NORTH ADAMS    NOT AVBL
PITTSFIELD     CLOUDY    33  25  72 W10       29.85R WCI  25
$$

RIZALL-031200-
RHODE ISLAND

CITY           SKY/WX    TMP DP  RH WIND       PRES   REMARKS
PROVIDENCE     NOT AVBL
NEWPORT        MOCLDY    39  28  64 W12G23    29.81R WCI  32
WESTERLY       CLEAR     40  24  53 VRB6      29.86R
$$

CTZALL-031200-
CONNECTICUT

CITY           SKY/WX    TMP DP  RH WIND       PRES   REMARKS
BRADLEY INTL   NOT AVBL
HARTFORD       CLOUDY    40  27  59 NW8G17    29.90R
BRIDGEPORT     PTCLDY    42  28  57 W10       29.91R
GROTON         CLEAR     43  28  55 NW14G23   29.86R
NEW HAVEN      NOT AVBL
CHESTER        CLOUDY    41  27  56 NW6       29.88R
MERIDEN        CLOUDY    41  28  60 NW13      29.89R
WILLIMANTIC    CLOUDY    41  27  57 NW13G23   29.86
OXFORD         CLOUDY    37  27  65 W3        29.90R
$$

MEZ002-015-021-024-NHZ003-005-008-011-012-014-VTZ005-008-031200-
NORTHERN NEW ENGLAND

CITY           SKY/WX    TMP DP  RH WIND       PRES   REMARKS
PORTLAND ME    NOT AVBL
BANGOR ME      CLOUDY    34  30  85 W7        29.64R WCI  28
CONCORD NH     NOT AVBL
MANCHESTER NH  PTCLDY    36  26  67 NW8       29.79R WCI  30
NASHUA NH      NOT AVBL
PORTSMOUTH NH  PTCLDY    37  26  64 W10       29.75R WCI  30
JAFFREY NH     PTCLDY    34  24  67 VRB6      29.80  WCI  29
KEENE NH       NOT AVBL
BURLINGTON VT  CLOUDY    37  29  72 NW13      29.86R WCI  29
MT. WASHINGTON SNOWSHWR  12  12 100 NW54G68     N/A  VSB 0   WCI -15
$$

NYZ052-076-031200-
EASTERN NEW YORK

CITY           SKY/WX    TMP DP  RH WIND       PRES   REMARKS
ALBANY         CLOUDY    37  27  67 NW17G29   29.91R WCI  27
NEW YORK CITY  PTCLDY    43  28  55 NW21G30   29.96R
$$

ANZALL-031200-
MARINE OBSERVATIONS

STATION/POSITION TIME  TEMP    WIND        PRES    VSBY  WAVE
                       AIR SEA DIR/SP/G                  HT/PER
                 (UTC) (F)     (DEG/KT/KT) (MB)    (MI)  (FT/S)
BOSTON BUOY      1050   42 51  290/ 19/ 25 1006.9R         3/ 4
BUZZARDS BAY     1000   41     300/ 29/ 34 1009.3R
NANTUCKET SOUND  NOT AVBL
MASS BAY-STELLWA 1004   42 50  290/ 17/ 19 1007.2R  1 7/8  3/ 3
ISLE OF SHOALS   1000   39     290/ 15/ 21 1006.7R
S OF BLOCK IS    1055      56                N/A           8/ 6
$$

......................KEY.........................
  SKY/WX - SKY CONDITION/PRESENT WEATHER
  TMP    - TEMPERATURE IN FAHRENHEIT
  DWPT   - DEWPOINT IN FAHRENHEIT
  RH     - RELATIVE HUMIDITY IN PERCENT
  WIND   - DIRECTION AND SPEED IN MPH
  PRES   - MEAN SEA LEVEL PRESSURE IN INCHES OF HG
  WCI    - WIND CHILL INDEX
  VSB    - VISIBILITY IN MILES
  HX     - HEAT INDEX
  TC     - TEMPERATURE IN CELSIUS
  VRB    - VARIABLE WIND DIRECTION
  N/A    - NOT AVAILABLE




USA.gov is the U.S. government's official web portal to all federal, state and local government web resources and services.